Location: Puketoi
(40.5833°S, 176.0167°E)
Time: 14:15:36
(UTC+00:00)

Cosmos 2227 Rocket - Pass Details

Date: 08 February 2023
Orbit: 839 x 845 km, 71.0° (Epoch: 22 March)

Event Time Altitude Azimuth Distance (km) Brightness Sun altitude
Rises 14:29:19 0° 196° (SSW) 3,429 5.9 -28.0°
Reaches altitude 10° 14:32:04 10° 185° (S) 2,489 5.2 -27.7°
Maximum altitude 14:37:09 32° 123° (ESE) 1,429 3.9 -27.1°
Drops below altitude 10° 14:42:10 10° 60° (ENE) 2,467 4.7 -26.6°
Sets 14:44:52 0° 50° (NE) 3,396 5.3 -26.3°
